Change the Weather History Date:

Tuesday, February 18, 2014

  Actual Average Record
Temperature  
Mean Temperature 47 °F 43 °F  
Max Temperature 53 °F 50 °F 66 °F (1981)
Min Temperature 40 °F 36 °F 22 °F (1955)
Degree Days  
Heating Degree Days 18 22  
Month to date heating degree days 449 412  
Cooling Degree Days 0 0  
Month to date cooling degree days 0 0  
Moisture  
Dew Point 41 °F    
Average Humidity 80    
Maximum Humidity 83    
Minimum Humidity 76    
Precipitation  
Precipitation 0.40 in 0.17 in 3.00 in (1986)
Month to date precipitation 2.71 3.31  
Year to date precipitation 5.57 9.49  
Sea Level Pressure  
Sea Level Pressure 29.90 in    
Wind  
Wind Speed 10 mph (SSW)    
Max Wind Speed 26 mph    
Max Gust Speed 36 mph    
Visibility 9 miles    
Events Rain    
T = Trace of Precipitation, MM = Missing Value Source: NWS Daily Summary

Daily Weather History Graph

Daily Weather History Graph

Search for Another Location

Airport or City:

Trip Planner

Search our weather history database for the weather conditions in past years. The results will help you decide how hot, cold, wet, or windy it might be!

Date:

Astronomy

Feb. 18, 2014 Rise Set
Actual Time 7:06 AM PST 5:41 PM PST
Civil Twilight 6:36 AM PST 6:11 PM PST
Nautical Twilight 6:01 AM PST 6:46 PM PST
Astronomical Twilight 5:27 AM PST 7:20 PM PST
Moon 9:54 PM PST (2/18) 8:29 AM PST (2/18)
Length of Visible Light 11h 35m
Length of Day
10h 34m
Waning Gibbous, 86% of the Moon is Illuminated
Feb 18
Waning Gibbous
Feb 22
Last Quarter
Mar 1
New
Mar 8
First Quarter
Mar 16
Full

Hourly Weather History & Observations

Time (PST) Temp. Windchill Dew Point Humidity Pressure Visibility Wind Dir Wind Speed Gust Speed Precip Events Conditions
12:53 AM 46.0 °F 44.8 °F 39.9 °F 79% 30.01 in 10.0 mi ENE 3.5 mph - N/A   Overcast
1:53 AM 46.0 °F - 41.0 °F 83% 30.01 in 9.0 mi Calm Calm - 0.01 in Rain Light Rain
2:53 AM 48.0 °F - 42.1 °F 80% 30.02 in 10.0 mi SSW 11.5 mph - 0.00 in   Mostly Cloudy
3:53 AM 48.9 °F - 42.1 °F 77% 30.02 in 10.0 mi South 6.9 mph - N/A   Overcast
4:53 AM 48.9 °F - 41.0 °F 74% 30.01 in 10.0 mi SSE 8.1 mph - N/A   Mostly Cloudy
5:53 AM 46.9 °F - 39.9 °F 77% 29.99 in 10.0 mi East 5.8 mph - N/A   Mostly Cloudy
6:53 AM 46.0 °F 44.8 °F 41.0 °F 83% 29.95 in 10.0 mi ESE 3.5 mph - N/A   Overcast
7:53 AM 46.0 °F 44.8 °F 41.0 °F 83% 29.92 in 10.0 mi East 3.5 mph - 0.00 in Rain Light Rain
8:53 AM 46.0 °F - 42.1 °F 86% 29.90 in 10.0 mi Calm Calm - 0.01 in   Overcast
9:53 AM 52.0 °F - 45.0 °F 77% 29.86 in 10.0 mi South 12.7 mph 24.2 mph 0.01 in Rain Light Rain
10:53 AM 53.1 °F - 44.1 °F 71% 29.82 in 10.0 mi SSW 13.8 mph 27.6 mph 0.00 in Rain Light Rain
11:53 AM 52.0 °F - 46.0 °F 80% 29.78 in 7.0 mi SSW 12.7 mph 19.6 mph 0.05 in Rain Light Rain
12:53 PM 52.0 °F - 46.9 °F 83% 29.73 in 6.0 mi SSW 18.4 mph 29.9 mph 0.14 in Rain Light Rain
1:53 PM 51.1 °F - 46.0 °F 83% 29.73 in 5.0 mi WSW 16.1 mph 21.9 mph 0.10 in Rain Rain
2:53 PM 50.0 °F - 44.1 °F 80% 29.76 in 9.0 mi WSW 16.1 mph 27.6 mph 0.05 in Rain Light Rain
3:53 PM 48.9 °F - 42.1 °F 77% 29.80 in 10.0 mi WSW 15.0 mph 25.3 mph 0.02 in   Mostly Cloudy
4:53 PM 48.9 °F - 43.0 °F 80% 29.83 in 8.0 mi WSW 17.3 mph 21.9 mph 0.01 in Rain Light Rain
5:53 PM 46.9 °F - 37.9 °F 71% 29.87 in 10.0 mi WSW 12.7 mph - 0.00 in   Scattered Clouds
6:53 PM 45.0 °F 41.8 °F 37.0 °F 74% 29.91 in 10.0 mi West 5.8 mph - 0.00 in   Mostly Cloudy
7:53 PM 41.0 °F - 36.0 °F 82% 29.94 in 10.0 mi Calm Calm - N/A   Scattered Clouds
8:53 PM 43.0 °F 37.7 °F 36.0 °F 76% 29.96 in 10.0 mi SSW 9.2 mph - N/A   Mostly Cloudy
9:53 PM 43.0 °F 36.4 °F 35.1 °F 74% 29.99 in 10.0 mi SW 12.7 mph - N/A   Mostly Cloudy
11:53 PM 43.0 °F 36.8 °F 36.0 °F 76% 30.00 in 10.0 mi SW 11.5 mph - 0.00 in   Overcast